Location: Cosy Dell
(34.2789°N, 117.4537°W)
Time: 23:11:57
(UTC+00:00)

IRS-1D - Pass Details

Date: 14 July 2020
Orbit: 739 x 817 km, 98.6° (Epoch: 12 August)

Event Time Altitude Azimuth Distance (km) Brightness Sun altitude
Rises 10:44:18 0° 0° (N) 3,182 7.4 -21.3°
Reaches altitude 10° 10:46:48 10° 350° (N) 2,253 6.4 -20.9°
Maximum altitude 10:51:04 30° 290° (WNW) 1,302 4.5 -20.3°
Enters shadow 10:51:50 29° 273° (W) 1,342 4.4 -20.2°
